Tracking 22223 objects as of 26-Jan-2021
HD Live streaming from Space Station
objects crossing your sky now

WESTFORD NEEDLES

Track WESTFORD NEEDLES now!
10-day predictions
WESTFORD NEEDLES is classified as:


NORAD ID: 18615
Int'l Code: 1963-014DK
Perigee: 2,787.5 km
Apogee: 4,436.9 km
Inclination: 86.9 °
Period: 165.4 minutes
Semi major axis: 9983 km
RCS: 0.075 m2 (small)
Launch date: May 9, 1963
Source: United States (US)
Launch site: AIR FORCE WESTERN TEST RANGE (AFWTR)
aabbcc
Your satellite tracking list
Your tracking list is empty




NASA's NSSDC Master Catalog

Two Line Element Set (TLE):
1 18615U 63014DK  21026.12716066 -.00000348  00000-0 -11058+0 0  9996
2 18615  86.9258 339.4320 0826102 343.5950  24.0480  8.70362429872997
Source of the keplerian elements: AFSPC